Weather History for Forest City, IA

Change the Weather History Date:

Sunday, February 2, 2014

  Actual Average Record
Temperature  
Mean Temperature 2 °F -  
Max Temperature 14 °F 23 °F 46 °F (2012)
Min Temperature -9 °F 5 °F -9 °F (2014)
Degree Days  
Heating Degree Days 62    
Moisture  
Dew Point -4 °F    
Average Humidity 74    
Maximum Humidity 85    
Minimum Humidity 62    
Precipitation  
Precipitation 0.00 in - - ()
Sea Level Pressure  
Sea Level Pressure 30.25 in    
Wind  
Wind Speed 6 mph (SW)    
Max Wind Speed 10 mph    
Max Gust Speed -    
Visibility 10 miles    
Events      
Averages and records for this station are not official NWS values.
T = Trace of Precipitation, MM = Missing Value Source: NWS Daily Summary

Daily Weather History Graph

Daily Weather History Graph

Search for Another Location

Airport:

Trip Planner

Search our weather history database for the weather conditions in past years. The results will help you decide how hot, cold, wet, or windy it might be!

Date:

Astronomy

Feb. 02, 2014 Rise Set
Actual Time 7:28 AM CST 5:28 PM CST
Civil Twilight 6:58 AM CST 5:58 PM CST
Nautical Twilight 6:24 AM CST 6:32 PM CST
Astronomical Twilight 5:51 AM CST 7:05 PM CST
Moon 8:49 AM CST (2/2) 9:20 PM CST (2/2)
Length of Visible Light 10h 59m
Length of Day
9h 59m
Waxing Crescent, 11% of the Moon is Illuminated
Feb 2
Waxing Crescent
Feb 6
First Quarter
Feb 14
Full
Feb 22
Last Quarter
Mar 1
New

Hourly Weather History & Observations

Time (CST) Temp. Windchill Dew Point Humidity Pressure Visibility Wind Dir Wind Speed Gust Speed Precip Events Conditions
12:15 AM 3.2 °F -12.2 °F -5.8 °F 66% 30.21 in 10.0 mi NW 10.4 mph - N/A   Clear
12:35 AM 3.2 °F -9.1 °F -5.8 °F 66% 30.22 in 10.0 mi NW 6.9 mph - N/A   Clear
12:55 AM 3.2 °F -9.1 °F -5.8 °F 66% 30.22 in 10.0 mi NW 6.9 mph - N/A   Clear
1:15 AM 1.4 °F -9.9 °F -5.8 °F 72% 30.22 in 10.0 mi NW 5.8 mph - N/A   Clear
1:35 AM 1.4 °F -12.5 °F -5.8 °F 72% 30.22 in 10.0 mi NW 8.1 mph - N/A   Clear
1:55 AM 1.4 °F -13.5 °F -5.8 °F 72% 30.22 in 10.0 mi NW 9.2 mph - N/A   Clear
2:15 AM 1.4 °F -13.5 °F -5.8 °F 72% 30.22 in 10.0 mi NW 9.2 mph - N/A   Clear
2:35 AM 1.4 °F -13.5 °F -5.8 °F 72% 30.22 in 10.0 mi NW 9.2 mph - N/A   Clear
2:55 AM 1.4 °F -11.3 °F -5.8 °F 72% 30.23 in 10.0 mi NW 6.9 mph - N/A   Clear
3:15 AM 1.4 °F -11.3 °F -5.8 °F 72% 30.23 in 10.0 mi WNW 6.9 mph - N/A   Clear
3:35 AM -0.4 °F -14.7 °F -7.6 °F 72% 30.23 in 10.0 mi WNW 8.1 mph - N/A   Clear
3:55 AM -2.2 °F -16.8 °F -7.6 °F 78% 30.24 in 10.0 mi WNW 8.1 mph - N/A   Clear
4:15 AM -4.0 °F -14.6 °F -9.4 °F 78% 30.24 in 10.0 mi WNW 4.6 mph - N/A   Clear
4:35 AM -5.8 °F -14.5 °F -11.2 °F 77% 30.24 in 10.0 mi WNW 3.5 mph - N/A   Clear
4:55 AM -5.8 °F -19.9 °F -11.2 °F 77% 30.25 in 10.0 mi West 6.9 mph - N/A   Clear
5:15 AM -7.6 °F -20.6 °F -13.0 °F 77% 30.25 in 10.0 mi WNW 5.8 mph - N/A   Clear
5:35 AM -7.6 °F - -13.0 °F 77% 30.25 in 10.0 mi Calm Calm - N/A   Clear
5:55 AM -5.8 °F - -11.2 °F 77% 30.25 in 10.0 mi Calm Calm - N/A   Clear
6:15 AM -7.6 °F -16.5 °F -13.0 °F 77% 30.25 in 10.0 mi WNW 3.5 mph - N/A   Clear
6:35 AM -7.6 °F - -13.0 °F 77% 30.26 in 10.0 mi Calm Calm - N/A   Clear
6:55 AM -9.4 °F - -14.8 °F 77% 30.26 in 10.0 mi Calm Calm - N/A   Clear
7:15 AM -7.6 °F - -13.0 °F 77% 30.26 in 10.0 mi Calm Calm - N/A   Clear
7:35 AM -9.4 °F - -16.6 °F 71% 30.26 in 10.0 mi Calm Calm - N/A   Clear
7:55 AM -9.4 °F -18.6 °F -16.6 °F 71% 30.27 in 10.0 mi WSW 3.5 mph - N/A   Clear
8:15 AM -7.6 °F -16.5 °F -13.0 °F 77% 30.27 in 10.0 mi WNW 3.5 mph - N/A   Clear
8:35 AM -5.8 °F - -11.2 °F 77% 30.27 in 10.0 mi Calm Calm - N/A   Clear
8:55 AM -2.2 °F - -7.6 °F 78% 30.28 in 10.0 mi Calm Calm - N/A   Clear
9:15 AM -0.4 °F - -5.8 °F 78% 30.28 in 10.0 mi Calm Calm - N/A   Clear
9:35 AM -0.4 °F -8.3 °F -5.8 °F 78% 30.29 in 10.0 mi South 3.5 mph - N/A   Clear
9:55 AM 1.4 °F -8.3 °F -4.0 °F 78% 30.30 in 10.0 mi SSW 4.6 mph - N/A   Clear
10:15 AM 3.2 °F -4.2 °F -4.0 °F 72% 30.30 in 10.0 mi South 3.5 mph - N/A   Clear
10:35 AM 5.0 °F -2.1 °F -4.0 °F 66% 30.30 in 10.0 mi SW 3.5 mph - N/A   Clear
10:55 AM 6.8 °F -2.0 °F -2.2 °F 67% 30.29 in 10.0 mi SW 4.6 mph - N/A   Clear
11:15 AM 8.6 °F - -0.4 °F 67% 30.29 in 10.0 mi Calm Calm - N/A   Clear
11:35 AM 8.6 °F 0.1 °F -0.4 °F 67% 30.29 in 10.0 mi South 4.6 mph - N/A   Clear
11:55 AM 8.6 °F -1.3 °F -0.4 °F 67% 30.29 in 10.0 mi SSW 5.8 mph - N/A   Clear
12:15 PM 10.4 °F -0.4 °F 1.4 °F 67% 30.28 in 10.0 mi SW 6.9 mph - N/A   Clear
12:35 PM 10.4 °F -0.4 °F 1.4 °F 67% 30.28 in 10.0 mi SW 6.9 mph - N/A   Clear
12:55 PM 10.4 °F -0.4 °F 3.2 °F 73% 30.27 in 10.0 mi SW 6.9 mph - N/A   Clear
1:15 PM 12.2 °F 0.7 °F 3.2 °F 67% 30.27 in 10.0 mi SW 8.1 mph - N/A   Clear
1:35 PM 12.2 °F -0.2 °F 3.2 °F 67% 30.27 in 10.0 mi SW 9.2 mph - N/A   Clear
1:55 PM 12.2 °F 0.7 °F 5.0 °F 73% 30.26 in 10.0 mi WSW 8.1 mph - N/A   Clear
2:15 PM 14.0 °F 2.0 °F 5.0 °F 67% 30.25 in 10.0 mi SW 9.2 mph - N/A   Clear
2:35 PM 14.0 °F 3.9 °F 5.0 °F 67% 30.25 in 10.0 mi SW 6.9 mph - N/A   Clear
2:55 PM 14.0 °F 2.9 °F 5.0 °F 67% 30.25 in 10.0 mi WSW 8.1 mph - N/A   Clear
3:15 PM 14.0 °F 2.9 °F 3.2 °F 62% 30.25 in 10.0 mi SW 8.1 mph - N/A   Clear
3:35 PM 14.0 °F 3.9 °F 5.0 °F 67% 30.25 in 10.0 mi SW 6.9 mph - N/A   Clear
3:55 PM 14.0 °F 5.1 °F 5.0 °F 67% 30.25 in 10.0 mi SW 5.8 mph - N/A   Clear
4:15 PM 14.0 °F 6.5 °F 3.2 °F 62% 30.25 in 10.0 mi WSW 4.6 mph - N/A   Clear
4:35 PM 14.0 °F 6.5 °F 3.2 °F 62% 30.24 in 10.0 mi SW 4.6 mph - N/A   Clear
4:55 PM 12.2 °F - 3.2 °F 67% 30.24 in 10.0 mi Calm Calm - N/A   Clear
5:15 PM 10.4 °F 2.2 °F 3.2 °F 73% 30.24 in 10.0 mi South 4.6 mph - N/A   Clear
5:35 PM 6.8 °F -4.8 °F 1.4 °F 79% 30.24 in 10.0 mi South 6.9 mph - N/A   Clear
5:55 PM 5.0 °F -5.6 °F -0.4 °F 78% 30.24 in 10.0 mi South 5.8 mph - N/A   Clear
6:15 PM 1.4 °F -9.9 °F -4.0 °F 78% 30.24 in 10.0 mi South 5.8 mph - N/A   Clear
6:35 PM 1.4 °F -11.3 °F -2.2 °F 85% 30.24 in 10.0 mi SSE 6.9 mph - N/A   Clear
6:55 PM 3.2 °F -6.2 °F -2.2 °F 78% 30.22 in 10.0 mi SSE 4.6 mph - N/A   Clear
7:15 PM 3.2 °F -6.2 °F -2.2 °F 78% 30.22 in 10.0 mi SSE 4.6 mph - N/A   Clear
7:35 PM 1.4 °F -9.9 °F -4.0 °F 78% 30.21 in 10.0 mi SSE 5.8 mph - N/A   Clear
7:55 PM -0.4 °F -10.4 °F -4.0 °F 85% 30.21 in 10.0 mi SSE 4.6 mph - N/A   Clear
8:15 PM -0.4 °F -12.0 °F -4.0 °F 85% 30.21 in 10.0 mi South 5.8 mph - N/A   Clear
8:35 PM -0.4 °F -12.0 °F -5.8 °F 78% 30.21 in 10.0 mi SSE 5.8 mph - N/A   Clear
8:55 PM -0.4 °F -12.0 °F -5.8 °F 78% 30.21 in 10.0 mi SSE 5.8 mph - N/A   Clear
9:15 PM -0.4 °F -10.4 °F -4.0 °F 85% 30.21 in 10.0 mi SE 4.6 mph - N/A   Clear
9:35 PM -0.4 °F -12.0 °F -4.0 °F 85% 30.21 in 10.0 mi SE 5.8 mph - N/A   Clear
9:55 PM -0.4 °F -13.4 °F -5.8 °F 78% 30.22 in 10.0 mi SSE 6.9 mph - N/A   Clear
10:15 PM 1.4 °F -8.3 °F -4.0 °F 78% 30.22 in 10.0 mi SSE 4.6 mph - N/A   Clear
10:35 PM 1.4 °F -9.9 °F -4.0 °F 78% 30.22 in 10.0 mi SSE 5.8 mph - N/A   Clear
10:55 PM 1.4 °F -9.9 °F -4.0 °F 78% 30.21 in 10.0 mi SSE 5.8 mph - N/A   Clear
11:15 PM -0.4 °F -10.4 °F -5.8 °F 78% 30.22 in 10.0 mi SSE 4.6 mph - N/A   Clear
11:35 PM -0.4 °F -10.4 °F -5.8 °F 78% 30.21 in 10.0 mi SSE 4.6 mph - N/A   Clear
11:55 PM -0.4 °F -10.4 °F -5.8 °F 78% 30.21 in 10.0 mi SSE 4.6 mph - N/A   Clear